Estatísticas

Estatísticas de performance de todos os tempos
Estatísticas das equipas
Estatísticas de actividade no jogo
Estatísticas
Estatísticas de países
Outras estatísticas
Estatisticas dos feitos
Estatísticas do staff
Estatísticas de apoiantes do GPRO

Carreiras de managers recentemente actualizadas
 
# Nome do Manager Grupo Actualizado
1. Mike Zestas Amateur - 57 Hoje às 20:33:54
2. Marco Anastasi Amateur - 14 Hoje às 17:06:03
3. Demeter Muller Rookie - 111 Hoje às 16:43:15
4. Ethan Littlejohns Elite Hoje às 16:23:34
5. Leo Impiglia Rookie - 87 Hoje às 15:30:32
6. Zsolt Varga Pro - 16 Hoje às 12:44:27
7. Dean Francis Pro - 7 Hoje às 09:47:01
8. Aswin Witte Rookie - 138 Hoje às 09:25:51
9. Jenne Breugelmans Pro - 15 Hoje às 08:45:07
10. István Hengl Pro - 10 Hoje às 07:38:43
11. Yan Chen Cheong Rookie - 52 Hoje às 07:13:51
12. Brad Marshall Pro - 7 Hoje às 04:51:31
13. Marcelo Tavares Amateur - 60 Hoje às 01:27:20
14. Markus Zrim Amateur - 56 Hoje às 00:29:26
15. Esteban Florentin Rookie - 28 Ontem às 22:50:59
16. Paulo Guarim Amateur - 71 Ontem às 22:18:24
17. Claudio Laguna Pro - 20 Ontem às 22:12:38
18. Fabrice Renaudet Amateur - 27 Ontem às 21:32:42
19. Quentin Rieg Rookie - 23 Ontem às 21:31:02
20. Renato Dell Amateur - 91 Ontem às 21:28:29
21. Richard Luijendijk Amateur - 50 Ontem às 21:28:03
22. Zé Pedro Paula Amateur - 82 Ontem às 18:44:30
23. Csongor Szabó Rookie - 11 Ontem às 18:15:09
24. Stefan Gommans Master - 2 Ontem às 17:55:57
25. Mikko Suhonen Elite Ontem às 17:02:28
26. Paul Bright Amateur - 10 Ontem às 15:23:55
27. Bartek Nowak Amateur - 28 Ontem às 13:42:40
28. Frank Kiebler Rookie - 73 Ontem às 12:37:14
29. Rafal Celejewski Pro - 22 21 Set 2020, 23:22:01
30. Nigel Donovan Amateur - 72 21 Set 2020, 22:59:07
31. Vladimir Valis Amateur - 85 21 Set 2020, 21:13:59
32. Mike Bennett Master - 3 21 Set 2020, 18:29:26
33. Wayne Laundon Amateur - 83 21 Set 2020, 11:27:00
34. Yakup Paçacı Pro - 11 21 Set 2020, 11:22:08
35. Gabriel Arbona Amateur - 11 21 Set 2020, 00:38:18
36. Vittorio Timpanaro Amateur - 33 20 Set 2020, 18:30:00
37. Jy Ryster Rookie - 7 20 Set 2020, 15:55:52
38. Raul Guedes Rookie - 122 20 Set 2020, 13:31:29
39. Amitesh Patnaik Amateur - 52 20 Set 2020, 12:36:14
40. Mike Bell Amateur - 86 20 Set 2020, 12:18:06
41. Mack Cotton Amateur - 4 20 Set 2020, 04:39:44
42. Marcus Probert Amateur - 38 20 Set 2020, 04:16:22
43. Henrique Hughes Paunero Amateur - 57 20 Set 2020, 01:32:55
44. Guido Simonetta Pro - 22 20 Set 2020, 00:50:24
45. Iskren Ivanov Amateur - 88 19 Set 2020, 23:34:26
46. Jason Claydon Pro - 8 19 Set 2020, 23:05:01
47. Torge Thorsson Rookie - 51 19 Set 2020, 21:25:06
48. Anthony Jonville Amateur - 47 19 Set 2020, 20:09:45
49. Juha Korhonen Amateur - 60 19 Set 2020, 19:38:28
50. Marcelo Nobre Amateur - 30 19 Set 2020, 16:20:10
51. Patrick Hertach Rookie - 116 19 Set 2020, 15:34:20
52. Ahmet Sonverdi Master - 4 19 Set 2020, 11:11:18
53. Daniel López Fanjul Amateur - 83 19 Set 2020, 11:07:06
54. Terence Webb Amateur - 4 19 Set 2020, 10:43:43
55. Tim Prince Amateur - 82 19 Set 2020, 04:15:33
56. Alexander Rowlands Amateur - 26 19 Set 2020, 02:04:19
57. Jorge Luis Muñoz Rookie - 82 19 Set 2020, 00:53:19
58. Rafael Venancio Rookie - 128 18 Set 2020, 23:43:15
59. Laurent Qazar Amateur - 11 18 Set 2020, 22:55:49
60. Elio Nisco Rookie - 11 18 Set 2020, 22:36:27
61. Kuba Szajbel Elite 18 Set 2020, 22:07:45
62. Alexander Van Akkooi Amateur - 19 18 Set 2020, 22:06:28
63. Cameron Halsall Amateur - 25 18 Set 2020, 22:06:25
64. Henrik Malmberg Pro - 9 18 Set 2020, 21:58:54
65. Marco Ferraz Amateur - 47 18 Set 2020, 19:13:09
66. Marc Meuleman Rookie - 102 18 Set 2020, 18:44:01
67. Alain Routhier Pro - 6 18 Set 2020, 18:08:00
68. Adir Babaros Rookie - 153 18 Set 2020, 17:22:15
69. Marco Conti Amateur - 61 18 Set 2020, 15:55:32
70. Xavier Porta Pro - 17 18 Set 2020, 15:07:28
71. Jorge Gaspar Amateur - 37 18 Set 2020, 08:24:59
72. Hernan Labourdette Amateur - 80 18 Set 2020, 04:08:38
73. Stiven Peraza Amateur - 16 17 Set 2020, 21:15:31
74. Rafael Margarido Pro - 2 17 Set 2020, 19:27:26
75. Niels Van Heijster Pro - 12 17 Set 2020, 10:44:33
76. Pedro Filipe Rookie - 156 17 Set 2020, 09:27:24
77. Daniel Rosa Pro - 23 17 Set 2020, 04:45:22
78. Andrea Squizzato Elite 17 Set 2020, 01:20:25
79. Iveta Lazdāne Amateur - 78 16 Set 2020, 19:58:29
80. Bok Naai Rookie - 153 16 Set 2020, 17:04:42
81. Maciek Paruch Amateur - 71 16 Set 2020, 16:59:28
82. Tomi Valtanen Rookie - 61 16 Set 2020, 14:21:11
83. Alexander Hoppe Amateur - 54 16 Set 2020, 13:08:32
84. Roy Douglass Amateur - 73 16 Set 2020, 04:19:30
85. Ademir Vieira Pro - 9 16 Set 2020, 04:03:27
86. Adrian Mihai Rookie - 78 16 Set 2020, 01:29:19
87. Andy Pope Amateur - 84 15 Set 2020, 20:51:03
88. Nicolaj Birkholm Amateur - 56 15 Set 2020, 20:40:29
89. Carlos Daniel Gregoret Rookie - 132 15 Set 2020, 19:49:36
90. Erik Harken Pro - 13 15 Set 2020, 19:37:22
91. Alan Snyder Amateur - 4 15 Set 2020, 19:13:25
92. Bruno Carvalho Amateur - 48 15 Set 2020, 16:38:23
93. Stefano Duo Amateur - 19 15 Set 2020, 10:57:19
94. Mauro Saccoccia Amateur - 34 14 Set 2020, 19:41:28
95. Patrick Paarhuis Amateur - 58 14 Set 2020, 19:39:55
96. Willem Page Amateur - 91 14 Set 2020, 19:09:19
97. Jojo Hutchins Rookie - 75 14 Set 2020, 18:42:51
98. Mauro Pisani Amateur - 58 14 Set 2020, 18:39:14
99. Fahriza Naufall Amateur - 73 14 Set 2020, 18:10:37
100. Augusto Carlos Amateur - 40 14 Set 2020, 16:35:55